sat.trackr.live / text

‹ back to catalog

STARLINK-3735

NORAD 52116 · 2022-029AE

PAYLOAD ACTIVE UNKNOWN

§ Identity

Operator
Country
US
Launch date
2022-03-19
Launch site
AFETR
Launch vehicle
Mass (kg)
RCS (m²)

Purposes: comms

External: N2YO · Heavens-Above · Gunter

§ Orbital elements

Epoch: 2026-05-25T02:51:16.905024Z

Period
95.44 min
Inclination
53.2134°
Eccentricity
0.0001230
Mean motion
15.08832950 rev/d
Perigee alt
538.9 km
Apogee alt
540.6 km
Semi-major
6,917.9 km
B*
-5.1932e-5
RAAN
96.0145°
Arg perigee
104.9011°
Mean anomaly
255.2118°
Rev number
23,232

§ Raw data

STARLINK-37351 52116U 22029AE  26145.11894566 -.00001114  00000+0 -51932-4 0  99902 52116  53.2134  96.0145 0001230 104.9011 255.2118 15.08832950232329

JSON: /api/v1/satellites/52116 · /tle

For live sub-satellite position, see the globe view (requires WebGL).

§ Visibility from observer

Set your observer location to see the next 7 days of passes ≥ 10°. The values pass through the URL so the page stays shareable.

No JS? Fill the form by hand. The geolocation button needs JavaScript.